Weather History for Winnemucca, NV

Change the Weather History Date:

Sunday, July 7, 2013

  Actual Average Record
Temperature  
Mean Temperature 77 °F 71 °F  
Max Temperature 96 °F 92 °F 103 °F (2014)
Min Temperature 58 °F 51 °F 33 °F (1903)
Degree Days  
Heating Degree Days 0 0  
Month to date heating degree days 0 6  
Since 1 June heating degree days 70 111  
Since 1 July heating degree days 0 6  
Cooling Degree Days 12 7  
Month to date cooling degree days 106 43  
Year to date cooling degree days 235 133  
Since 1 June cooling degree days 234 122  
Growing Degree Days 26 (Base 50)    
Moisture  
Dew Point 23 °F    
Average Humidity 16    
Maximum Humidity 26    
Minimum Humidity 6    
Precipitation  
Precipitation 0.00 in 0.01 in 0.11 in (2011)
Month to date precipitation 0.26 0.05  
Year to date precipitation 2.22 4.98  
Snow  
Snow 0.00 in 0.00 in 0.00 in (1877)
Month to date snowfall T 0.0  
Since 1 June snowfall T T  
Since 1 July snowfall T 0.0  
Snow Depth 0.00 in    
Sea Level Pressure  
Sea Level Pressure 29.76 in    
Wind  
Wind Speed 8 mph (WSW)    
Max Wind Speed 22 mph    
Max Gust Speed 31 mph    
Visibility 10 miles    
Events      
T = Trace of Precipitation, MM = Missing Value Source: NWS Daily Summary

Daily Weather History Graph

Daily Weather History Graph

Search for Another Location

Airport:

Trip Planner

Search our weather history database for the weather conditions in past years. The results will help you decide how hot, cold, wet, or windy it might be!

Date:

Astronomy

Jul. 07, 2013 Rise Set
Actual Time 5:26 AM PDT 8:25 PM PDT
Civil Twilight 4:53 AM PDT 8:58 PM PDT
Nautical Twilight 4:11 AM PDT 9:40 PM PDT
Astronomical Twilight 3:22 AM PDT 10:28 PM PDT
Moon 5:07 AM PDT (7/7) 7:51 PM PDT (7/7)
Length of Visible Light 16h 04m
Length of Day
14h 58m
Waning Crescent, 0% of the Moon is Illuminated
Jul 7
Waning Crescent
Jul 8
New
Jul 15
First Quarter
Jul 22
Full
Jul 29
Last Quarter

Hourly Weather History & Observations

Time (PDT) Temp. Dew Point Humidity Pressure Visibility Wind Dir Wind Speed Gust Speed Precip Events Conditions
12:56 AM 70.0 °F 21.9 °F 16% 29.73 in 10.0 mi WSW 4.6 mph - N/A   Clear
1:56 AM 72.0 °F 25.0 °F 17% 29.73 in 10.0 mi WSW 9.2 mph - N/A   Clear
2:56 AM 69.1 °F 25.0 °F 19% 29.74 in 10.0 mi SSE 6.9 mph - N/A   Clear
3:56 AM 63.0 °F 25.0 °F 24% 29.75 in 10.0 mi SE 5.8 mph - N/A   Clear
4:56 AM 66.0 °F 24.1 °F 20% 29.76 in 10.0 mi Calm Calm - N/A   Clear
5:56 AM 63.0 °F 27.0 °F 26% 29.78 in 10.0 mi NE 3.5 mph - N/A   Clear
6:56 AM 64.0 °F 28.0 °F 26% 29.80 in 10.0 mi West 4.6 mph - N/A   Clear
7:56 AM 72.0 °F 26.1 °F 18% 29.80 in 10.0 mi Calm Calm - N/A   Clear
8:56 AM 80.1 °F 21.9 °F 12% 29.82 in 10.0 mi Calm Calm - N/A   Clear
9:56 AM 84.9 °F 8.1 °F 5% 29.81 in 10.0 mi SW 6.9 mph - N/A   Clear
10:56 AM 88.0 °F 16.0 °F 7% 29.79 in 10.0 mi West 9.2 mph - N/A   Clear
11:56 AM 90.0 °F 19.9 °F 8% 29.78 in 10.0 mi West 13.8 mph 21.9 mph N/A   Clear
12:56 PM 91.9 °F 21.9 °F 8% 29.78 in 10.0 mi SSW 9.2 mph 21.9 mph N/A   Clear
1:56 PM 93.0 °F 21.9 °F 8% 29.74 in 10.0 mi SW 12.7 mph 20.7 mph N/A   Clear
2:56 PM 96.1 °F 23.0 °F 7% 29.72 in 10.0 mi WSW 18.4 mph 31.1 mph N/A   Clear
3:56 PM 93.0 °F 23.0 °F 8% 29.72 in 10.0 mi SSW 8.1 mph - N/A   Clear
4:56 PM 95.0 °F 23.0 °F 8% 29.69 in 10.0 mi West 19.6 mph 26.5 mph N/A   Clear
5:56 PM 93.0 °F 23.0 °F 8% 29.70 in 10.0 mi West 16.1 mph 23.0 mph N/A   Clear
6:56 PM 91.0 °F 25.0 °F 9% 29.71 in 10.0 mi West 11.5 mph - N/A   Clear
7:56 PM 87.1 °F 26.1 °F 11% 29.72 in 10.0 mi WNW 11.5 mph - N/A   Clear
8:56 PM 79.0 °F 28.0 °F 15% 29.74 in 10.0 mi WNW 3.5 mph - N/A   Clear
9:56 PM 73.9 °F 28.0 °F 18% 29.77 in 10.0 mi Calm Calm - N/A   Clear
10:56 PM 73.9 °F 27.0 °F 18% 29.79 in 10.0 mi Calm Calm - N/A   Clear
11:56 PM 72.0 °F 27.0 °F 19% 29.81 in 10.0 mi West 8.1 mph - N/A   Clear